^^
Datos históricos de la estación: Murcia-Puente Tocinos
Diario Informe para Julio 21, 2019 Unidades:  Métrico    Inglés   Ambas
Diario Semanal Mensual Anual Configurable
  Máximo: Mínimo: Media:
Temperatura: 32.8 °C 24.9 °C 28.6 °C
Punto de rocio: 20.8 °C 13.3 °C 16.9 °C
Humedad: 70% 32% 50%
Velocidad viento: 24.5km/h 0.0km/h 11.8km/h
Racha viento: 43.4km/h - -
Viento- - ESE
Presión: 1019.1 hPa 1014.5 hPa -
Precipitación: 0.0 mm    
Historical Graphs
 
 
Tabla de datos para Julio 21, 2019
Hora Temperatura Punto de rocio Presión Viento Velocidad viento Racha viento Humedad Intensidad lluvia(por hora) Nubes
00:00 26.7 °C 18.6 °C 1015.3 hPa NE 8.0 km/h 11.3 km/h 61% 0.0 mm CLR
00:05 26.7 °C 18.6 °C 1015.2 hPa NE 8.0 km/h 11.3 km/h 61% 0.0 mm CLR
00:10 26.7 °C 18.6 °C 1015.2 hPa NE 4.8 km/h 8.0 km/h 61% 0.0 mm CLR
00:15 26.7 °C 18.6 °C 1015.2 hPa NE 4.8 km/h 4.8 km/h 61% 0.0 mm CLR
00:20 26.7 °C 18.6 °C 1015.3 hPa Calm   3.2 km/h 61% 0.0 mm CLR
00:25 26.7 °C 18.6 °C 1015.3 hPa Calm     61% 0.0 mm CLR
00:30 26.6 °C 18.4 °C 1015.3 hPa Calm     61% 0.0 mm CLR
00:35 26.6 °C 18.4 °C 1015.3 hPa Calm     61% 0.0 mm CLR
00:40 26.6 °C 18.4 °C 1015.3 hPa Calm     61% 0.0 mm CLR
00:45 26.6 °C 18.4 °C 1015.3 hPa Calm   8.0 km/h 61% 0.0 mm CLR
00:50 26.5 °C 18.1 °C 1015.3 hPa WNW 3.2 km/h 8.0 km/h 60% 0.0 mm CLR
00:55 26.5 °C 18.1 °C 1015.3 hPa WNW 3.2 km/h 8.0 km/h 60% 0.0 mm CLR
01:00 26.5 °C 18.1 °C 1015.3 hPa West 3.2 km/h 8.0 km/h 60% 0.0 mm CLR
01:05 26.6 °C 17.9 °C 1015.2 hPa West 3.2 km/h 11.3 km/h 59% 0.0 mm CLR
01:10 26.6 °C 17.9 °C 1015.2 hPa West 4.8 km/h 9.7 km/h 59% 0.0 mm CLR
01:15 26.7 °C 17.8 °C 1015.2 hPa West 4.8 km/h 8.0 km/h 58% 0.0 mm CLR
01:20 26.7 °C 17.8 °C 1015.2 hPa West 3.2 km/h 4.8 km/h 58% 0.0 mm CLR
01:25 26.8 °C 17.6 °C 1015.2 hPa West 3.2 km/h   57% 0.0 mm CLR
01:30 26.8 °C 17.3 °C 1015.2 hPa Calm     56% 0.0 mm CLR
01:35 26.9 °C 17.7 °C 1015.1 hPa Calm     57% 0.0 mm CLR
01:40 27.0 °C 17.8 °C 1015.1 hPa Calm     57% 0.0 mm CLR
01:45 27.0 °C 17.8 °C 1015.1 hPa Calm   4.8 km/h 57% 0.0 mm CLR
01:50 27.1 °C 17.8 °C 1015.0 hPa SE 3.2 km/h 8.0 km/h 57% 0.0 mm CLR
01:55 27.0 °C 17.5 °C 1015.0 hPa SW 2.9 km/h 9.3 km/h 56% 0.0 mm CLR
02:00 27.1 °C 17.8 °C 1015.0 hPa SW 4.8 km/h 8.0 km/h 57% 0.0 mm CLR
02:05 26.9 °C 17.7 °C 1015.1 hPa SSW 4.8 km/h 8.0 km/h 57% 0.0 mm CLR
02:10 26.9 °C 17.9 °C 1015.1 hPa SSW 5.8 km/h 9.3 km/h 58% 0.0 mm CLR
02:15 26.8 °C 17.8 °C 1015.1 hPa SSW 4.8 km/h 9.7 km/h 58% 0.0 mm CLR
02:20 26.7 °C 17.8 °C 1015.0 hPa West 5.8 km/h 11.1 km/h 58% 0.0 mm CLR
02:25 26.6 °C 17.9 °C 1015.0 hPa SW 4.8 km/h 14.5 km/h 59% 0.0 mm CLR
02:30 26.6 °C 17.9 °C 1015.0 hPa SW 8.0 km/h 14.5 km/h 59% 0.0 mm CLR
02:35 26.5 °C 17.8 °C 1015.0 hPa SW 8.0 km/h 11.3 km/h 59% 0.0 mm CLR
02:40 26.4 °C 17.7 °C 1015.0 hPa SW 7.6 km/h 11.1 km/h 59% 0.0 mm CLR
02:45 26.3 °C 17.7 °C 1015.0 hPa SW 8.0 km/h 11.3 km/h 59% 0.0 mm CLR
02:50 26.3 °C 17.7 °C 1014.9 hPa SSW 6.4 km/h 9.3 km/h 59% 0.0 mm CLR
02:55 26.3 °C 17.7 °C 1014.9 hPa SW 8.0 km/h 9.7 km/h 59% 0.0 mm CLR
03:00 26.3 °C 17.7 °C 1014.9 hPa SW 8.0 km/h 9.7 km/h 59% 0.0 mm CLR
03:05 26.2 °C 17.6 °C 1014.8 hPa SW 8.0 km/h 9.7 km/h 59% 0.0 mm CLR
03:10 26.2 °C 17.6 °C 1014.8 hPa WSW 6.4 km/h 9.5 km/h 59% 0.0 mm CLR
03:15 26.2 °C 17.3 °C 1014.8 hPa SW 8.0 km/h 11.3 km/h 58% 0.0 mm CLR
03:20 26.2 °C 17.6 °C 1014.8 hPa SW 8.0 km/h 11.3 km/h 59% 0.0 mm CLR
03:25 26.1 °C 17.7 °C 1014.8 hPa SSW 8.0 km/h 14.5 km/h 60% 0.0 mm CLR
03:30 25.9 °C 17.3 °C 1014.8 hPa SSW 8.4 km/h 13.0 km/h 59% 0.0 mm CLR
03:35 25.9 °C 17.6 °C 1014.8 hPa SSW 8.0 km/h 14.5 km/h 60% 0.0 mm CLR
03:39 25.8 °C 17.2 °C 1014.8 hPa SW 7.6 km/h 7.4 km/h 59% 0.0 mm CLR
03:45 25.8 °C 17.2 °C 1014.8 hPa SW 8.0 km/h 12.9 km/h 59% 0.0 mm CLR
03:50 25.8 °C 17.2 °C 1014.7 hPa SW 6.9 km/h 13.0 km/h 59% 0.0 mm CLR
03:55 25.7 °C 17.1 °C 1014.7 hPa SSW 8.0 km/h 12.9 km/h 59% 0.0 mm CLR
04:00 25.7 °C 17.1 °C 1014.7 hPa SSE 4.8 km/h 8.0 km/h 59% 0.0 mm CLR
04:05 25.7 °C 17.1 °C 1014.8 hPa SSE 4.8 km/h 12.9 km/h 59% 0.0 mm CLR
04:10 25.6 °C 17.0 °C 1014.8 hPa SSW 8.0 km/h 14.5 km/h 59% 0.0 mm CLR
04:15 25.7 °C 17.1 °C 1014.8 hPa SSW 6.9 km/h 2.3 km/h 59% 0.0 mm CLR
04:20 25.7 °C 16.8 °C 1014.7 hPa SSW 4.8 km/h 11.3 km/h 58% 0.0 mm CLR
04:25 25.6 °C 16.7 °C 1014.7 hPa SSW 4.8 km/h 9.7 km/h 58% 0.0 mm CLR
04:30 25.6 °C 16.7 °C 1014.7 hPa South 3.2 km/h 8.0 km/h 58% 0.0 mm CLR
04:35 25.6 °C 17.0 °C 1014.6 hPa South 3.2 km/h 9.7 km/h 59% 0.0 mm CLR
04:40 25.5 °C 16.9 °C 1014.6 hPa SSW 4.8 km/h 9.7 km/h 59% 0.0 mm CLR
04:45 25.4 °C 16.8 °C 1014.6 hPa South 4.8 km/h 9.7 km/h 59% 0.0 mm CLR
04:50 25.4 °C 16.8 °C 1014.5 hPa SSW 3.2 km/h 8.0 km/h 59% 0.0 mm CLR
04:55 25.4 °C 16.8 °C 1014.5 hPa SW 3.2 km/h 8.0 km/h 59% 0.0 mm CLR
05:00 25.4 °C 16.8 °C 1014.5 hPa SW 4.8 km/h 9.7 km/h 59% 0.0 mm CLR
05:05 25.4 °C 16.6 °C 1014.6 hPa SSW 4.8 km/h 9.7 km/h 58% 0.0 mm CLR
05:10 25.4 °C 16.8 °C 1014.6 hPa SSW 8.0 km/h 11.3 km/h 59% 0.0 mm CLR
05:15 25.3 °C 16.7 °C 1014.6 hPa SSW 8.0 km/h 9.7 km/h 59% 0.0 mm CLR
05:20 25.3 °C 16.7 °C 1014.7 hPa SSW 6.4 km/h 11.1 km/h 59% 0.0 mm CLR
05:25 25.3 °C 16.7 °C 1014.7 hPa South 8.0 km/h 12.9 km/h 59% 0.0 mm CLR
05:30 25.2 °C 16.6 °C 1014.7 hPa SSW 9.7 km/h 12.9 km/h 59% 0.0 mm CLR
05:35 25.2 °C 16.6 °C 1014.8 hPa SSW 9.7 km/h 9.7 km/h 59% 0.0 mm CLR
05:40 25.2 °C 16.9 °C 1014.8 hPa SSW 8.0 km/h 11.3 km/h 60% 0.0 mm CLR
05:45 25.1 °C 16.8 °C 1014.8 hPa SSW 8.0 km/h 12.9 km/h 60% 0.0 mm CLR
05:50 25.2 °C 16.6 °C 1014.8 hPa SSW 8.0 km/h 11.3 km/h 59% 0.0 mm CLR
05:55 25.1 °C 16.6 °C 1014.8 hPa SSW 8.0 km/h 11.3 km/h 59% 0.0 mm CLR
06:00 25.1 °C 16.5 °C 1014.8 hPa SSW 8.0 km/h 12.9 km/h 59% 0.0 mm CLR
06:05 25.1 °C 16.5 °C 1014.9 hPa SSW 8.0 km/h 11.3 km/h 59% 0.0 mm CLR
06:10 25.1 °C 16.8 °C 1014.9 hPa SSW 8.0 km/h 11.3 km/h 60% 0.0 mm CLR
06:15 25.1 °C 16.8 °C 1014.9 hPa SSW 7.6 km/h 9.3 km/h 60% 0.0 mm CLR
06:20 25.1 °C 16.8 °C 1014.8 hPa SSW 8.0 km/h 9.7 km/h 60% 0.0 mm CLR
06:25 25.1 °C 16.7 °C 1014.8 hPa SSW 8.0 km/h 9.7 km/h 60% 0.0 mm CLR
06:30 25.0 °C 16.7 °C 1014.8 hPa SSW 4.8 km/h 8.0 km/h 60% 0.0 mm CLR
06:35 25.0 °C 16.4 °C 1014.8 hPa SW 4.8 km/h 8.0 km/h 59% 0.0 mm CLR
06:40 24.9 °C 16.3 °C 1014.8 hPa SW 3.2 km/h 8.0 km/h 59% 0.0 mm CLR
06:45 24.9 °C 16.1 °C 1014.8 hPa SW 3.2 km/h 9.7 km/h 58% 0.0 mm CLR
06:50 25.0 °C 16.4 °C 1015.1 hPa SSW 8.0 km/h 12.9 km/h 59% 0.0 mm CLR
06:55 24.9 °C 16.1 °C 1015.1 hPa SSW 8.0 km/h 16.1 km/h 58% 0.0 mm CLR
07:00 24.9 °C 16.1 °C 1015.1 hPa SSW 9.7 km/h 11.3 km/h 58% 0.0 mm CLR
07:05 24.9 °C 16.1 °C 1014.9 hPa SSW 9.7 km/h 9.7 km/h 58% 0.0 mm CLR
07:10 24.9 °C 16.1 °C 1014.9 hPa SSW 8.0 km/h 11.3 km/h 58% 0.0 mm CLR
07:15 24.9 °C 16.1 °C 1014.9 hPa South 8.0 km/h 8.0 km/h 58% 0.0 mm CLR
07:20 24.9 °C 16.1 °C 1014.9 hPa SSW 4.8 km/h 9.7 km/h 58% 0.0 mm CLR
07:25 25.0 °C 16.2 °C 1014.9 hPa SSW 4.8 km/h 8.0 km/h 58% 0.0 mm CLR
07:30 24.9 °C 15.8 °C 1014.9 hPa SSW 3.2 km/h 8.0 km/h 57% 0.0 mm CLR
07:35 25.0 °C 15.9 °C 1015.0 hPa SSW 3.2 km/h 9.7 km/h 57% 0.0 mm CLR
07:40 25.1 °C 16.0 °C 1015.0 hPa SSW 4.8 km/h 11.3 km/h 57% 0.0 mm CLR
07:45 25.2 °C 16.0 °C 1015.0 hPa SSW 4.8 km/h 9.7 km/h 57% 0.0 mm CLR
07:50 25.2 °C 16.1 °C 1015.2 hPa SSW 8.0 km/h 9.7 km/h 57% 0.0 mm CLR
07:55 25.3 °C 15.8 °C 1015.2 hPa SSW 8.0 km/h 11.3 km/h 56% 0.0 mm CLR
08:00 25.3 °C 15.9 °C 1015.2 hPa SSW 8.0 km/h 11.3 km/h 56% 0.0 mm CLR
08:05 25.3 °C 15.9 °C 1015.3 hPa SSW 8.0 km/h 12.9 km/h 56% 0.0 mm CLR
08:10 25.4 °C 16.0 °C 1015.3 hPa SSW 8.0 km/h 14.5 km/h 56% 0.0 mm CLR
08:14 25.3 °C 15.9 °C 1015.3 hPa SSW 7.6 km/h 11.1 km/h 56% 0.0 mm CLR
08:20 25.3 °C 15.9 °C 1015.6 hPa SSW 9.7 km/h 16.1 km/h 56% 0.0 mm CLR
08:25 25.3 °C 15.9 °C 1015.6 hPa SSW 9.7 km/h 16.1 km/h 56% 0.0 mm CLR
08:30 25.3 °C 15.9 °C 1015.6 hPa SW 9.7 km/h 16.1 km/h 56% 0.0 mm CLR
08:35 25.4 °C 16.0 °C 1015.8 hPa SW 9.7 km/h 17.7 km/h 56% 0.0 mm CLR
08:40 25.5 °C 15.8 °C 1015.8 hPa SW 9.7 km/h 14.5 km/h 55% 0.0 mm CLR
08:45 25.7 °C 15.9 °C 1015.8 hPa SW 9.7 km/h 14.5 km/h 55% 0.0 mm CLR
08:50 25.7 °C 16.0 °C 1015.9 hPa WSW 9.7 km/h 14.5 km/h 55% 0.0 mm CLR
08:55 25.8 °C 16.1 °C 1015.9 hPa WSW 9.7 km/h 12.9 km/h 55% 0.0 mm CLR
09:00 25.9 °C 16.2 °C 1015.9 hPa WSW 8.0 km/h 14.5 km/h 55% 0.0 mm CLR
09:05 26.0 °C 15.9 °C 1016.0 hPa WSW 8.0 km/h 12.9 km/h 54% 0.0 mm CLR
09:10 26.1 °C 16.1 °C 1016.0 hPa West 8.0 km/h 9.7 km/h 54% 0.0 mm CLR
09:15 26.3 °C 15.9 °C 1016.0 hPa WSW 8.0 km/h 11.3 km/h 53% 0.0 mm CLR
09:20 26.4 °C 15.8 °C 1016.1 hPa WSW 8.0 km/h 14.5 km/h 52% 0.0 mm CLR
09:25 26.6 °C 15.6 °C 1016.1 hPa SW 8.0 km/h 14.5 km/h 51% 0.0 mm CLR
09:30 26.7 °C 15.7 °C 1016.1 hPa SW 8.0 km/h 11.3 km/h 51% 0.0 mm CLR
09:35 26.8 °C 15.9 °C 1016.1 hPa SW 8.0 km/h 11.3 km/h 51% 0.0 mm CLR
09:40 26.9 °C 15.7 °C 1016.1 hPa WSW 8.0 km/h 12.9 km/h 50% 0.0 mm CLR
09:45 27.1 °C 15.8 °C 1016.1 hPa West 8.0 km/h 8.0 km/h 50% 0.0 mm CLR
09:50 27.3 °C 15.9 °C 1016.2 hPa WSW 4.8 km/h 9.7 km/h 50% 0.0 mm CLR
09:55 27.3 °C 15.9 °C 1016.2 hPa SW 4.8 km/h 9.7 km/h 50% 0.0 mm CLR
09:59 27.6 °C 15.9 °C 1016.2 hPa West 5.0 km/h 9.3 km/h 49% 0.0 mm CLR
10:05 27.7 °C 16.0 °C 1016.2 hPa WSW 4.8 km/h 8.0 km/h 49% 0.0 mm CLR
10:09 28.0 °C 15.9 °C 1016.2 hPa West 3.2 km/h 7.4 km/h 48% 0.0 mm CLR
10:15 28.2 °C 15.8 °C 1016.2 hPa WSW 3.2 km/h 8.0 km/h 47% 0.0 mm CLR
10:20 28.3 °C 15.9 °C 1016.3 hPa West 3.2 km/h 8.0 km/h 47% 0.0 mm CLR
10:25 28.8 °C 16.0 °C 1016.3 hPa NW 3.2 km/h 8.0 km/h 46% 0.0 mm CLR
10:30 29.2 °C 16.1 °C 1016.3 hPa NNE 3.2 km/h 8.0 km/h 45% 0.0 mm CLR
10:35 29.4 °C 15.9 °C 1016.3 hPa NE 3.2 km/h 11.3 km/h 44% 0.0 mm CLR
10:40 29.6 °C 16.1 °C 1016.3 hPa ENE 3.2 km/h 8.0 km/h 44% 0.0 mm CLR
10:45 29.8 °C 16.9 °C 1016.3 hPa NE 3.2 km/h 16.1 km/h 46% 0.0 mm CLR
10:50 29.4 °C 16.9 °C 1016.2 hPa NE 8.0 km/h 16.1 km/h 47% 0.0 mm CLR
10:55 29.6 °C 17.4 °C 1016.2 hPa NE 8.0 km/h 16.1 km/h 48% 0.0 mm CLR
10:59 29.6 °C 17.8 °C 1016.2 hPa NNE 7.6 km/h 20.4 km/h 49% 0.0 mm CLR
11:05 29.4 °C 17.6 °C 1016.2 hPa NE 8.0 km/h 22.5 km/h 49% 0.0 mm CLR
11:10 29.3 °C 17.5 °C 1016.2 hPa NNE 11.3 km/h 20.9 km/h 49% 0.0 mm CLR
11:15 29.6 °C 17.8 °C 1016.2 hPa NNE 11.3 km/h 19.3 km/h 49% 0.0 mm CLR
11:20 29.8 °C 18.3 °C 1016.3 hPa NNE 9.7 km/h 25.7 km/h 50% 0.0 mm CLR
11:25 29.8 °C 18.3 °C 1016.3 hPa NE 9.7 km/h 27.4 km/h 50% 0.0 mm CLR
11:30 30.1 °C 18.2 °C 1016.3 hPa NE 14.5 km/h 27.4 km/h 49% 0.0 mm CLR
11:35 30.1 °C 18.2 °C 1016.3 hPa NNE 14.5 km/h 25.7 km/h 49% 0.0 mm CLR
11:40 30.1 °C 18.2 °C 1016.3 hPa NE 16.1 km/h 25.7 km/h 49% 0.0 mm CLR
11:45 30.3 °C 18.1 °C 1016.3 hPa NE 16.1 km/h 25.7 km/h 48% 0.0 mm CLR
11:50 30.7 °C 17.4 °C 1016.4 hPa NE 14.5 km/h 29.0 km/h 45% 0.0 mm CLR
11:54 30.8 °C 16.0 °C 1016.4 hPa NNE 14.8 km/h 38.9 km/h 41% 0.0 mm CLR
11:59 31.0 °C 16.2 °C 1016.4 hPa East 20.9 km/h 24.1 km/h 41% 0.0 mm CLR
12:05 31.2 °C 16.0 °C 1016.5 hPa NE 20.9 km/h 32.2 km/h 40% 0.0 mm CLR
12:09 31.5 °C 14.6 °C 1016.5 hPa ENE 17.2 km/h 25.9 km/h 36% 0.0 mm CLR
12:15 31.8 °C 14.9 °C 1016.5 hPa ENE 16.1 km/h 29.0 km/h 36% 0.0 mm CLR
12:20 32.1 °C 14.3 °C 1016.6 hPa NE 19.3 km/h 35.4 km/h 34% 0.0 mm CLR
12:25 32.1 °C 13.3 °C 1016.6 hPa NE 19.3 km/h 35.4 km/h 32% 0.0 mm CLR
12:30 32.1 °C 13.3 °C 1016.6 hPa NE 19.3 km/h 30.6 km/h 32% 0.0 mm CLR
12:35 32.1 °C 13.3 °C 1016.7 hPa NE 19.3 km/h 33.8 km/h 32% 0.0 mm CLR
12:40 32.3 °C 13.5 °C 1016.7 hPa NE 19.3 km/h 33.8 km/h 32% 0.0 mm CLR
12:45 32.2 °C 13.4 °C 1016.7 hPa NE 19.3 km/h 33.8 km/h 32% 0.0 mm CLR
12:50 32.0 °C 13.7 °C 1016.7 hPa NE 20.9 km/h 33.8 km/h 33% 0.0 mm CLR
12:55 32.1 °C 13.8 °C 1016.7 hPa ENE 20.9 km/h 32.2 km/h 33% 0.0 mm CLR
13:00 32.2 °C 13.4 °C 1016.7 hPa NE 16.1 km/h 38.6 km/h 32% 0.0 mm CLR
13:05 32.2 °C 13.4 °C 1016.8 hPa NE 16.1 km/h 29.0 km/h 32% 0.0 mm CLR
13:10 32.2 °C 14.3 °C 1016.8 hPa NE 20.9 km/h 38.6 km/h 34% 0.0 mm CLR
13:14 31.8 °C 14.9 °C 1016.8 hPa ENE 19.8 km/h 24.1 km/h 36% 0.0 mm CLR
13:20 31.9 °C 15.0 °C 1016.7 hPa NE 20.9 km/h 33.8 km/h 36% 0.0 mm CLR
13:25 31.9 °C 15.4 °C 1016.7 hPa NE 20.9 km/h 33.8 km/h 37% 0.0 mm CLR
13:29 31.9 °C 15.4 °C 1016.7 hPa East 20.1 km/h 29.6 km/h 37% 0.0 mm CLR
13:35 31.9 °C 15.4 °C 1016.6 hPa NE 20.9 km/h 30.6 km/h 37% 0.0 mm CLR
13:40 31.9 °C 15.4 °C 1016.6 hPa NE 22.5 km/h 35.4 km/h 37% 0.0 mm CLR
13:45 31.9 °C 15.8 °C 1016.6 hPa NE 22.5 km/h 35.4 km/h 38% 0.0 mm CLR
13:49 32.2 °C 15.7 °C 1016.5 hPa NE 19.8 km/h 29.6 km/h 37% 0.0 mm CLR
13:55 31.9 °C 15.4 °C 1016.5 hPa NE 20.9 km/h 38.6 km/h 37% 0.0 mm CLR
14:00 32.1 °C 16.0 °C 1016.5 hPa NE 20.9 km/h 35.4 km/h 38% 0.0 mm CLR
14:05 32.2 °C 15.7 °C 1016.5 hPa NE 20.9 km/h 33.8 km/h 37% 0.0 mm CLR
14:10 32.3 °C 15.8 °C 1016.5 hPa NE 19.3 km/h 30.6 km/h 37% 0.0 mm CLR
14:14 32.3 °C 15.3 °C 1016.5 hPa NE 18.3 km/h 25.9 km/h 36% 0.0 mm CLR
14:20 32.3 °C 15.3 °C 1016.4 hPa NE 20.9 km/h 35.4 km/h 36% 0.0 mm CLR
14:25 32.6 °C 15.6 °C 1016.4 hPa NE 20.9 km/h 30.6 km/h 36% 0.0 mm CLR
14:30 32.6 °C 15.6 °C 1016.4 hPa ENE 16.1 km/h 32.2 km/h 36% 0.0 mm CLR
14:34 32.5 °C 15.5 °C 1016.4 hPa ESE 16.4 km/h 35.2 km/h 36% 0.0 mm CLR
14:40 32.4 °C 15.0 °C 1016.4 hPa ENE 19.3 km/h 29.0 km/h 35% 0.0 mm CLR
14:45 32.4 °C 15.4 °C 1016.4 hPa ENE 19.3 km/h 33.8 km/h 36% 0.0 mm CLR
14:50 32.6 °C 15.6 °C 1016.3 hPa NE 19.3 km/h 30.6 km/h 36% 0.0 mm CLR
14:55 32.6 °C 15.2 °C 1016.3 hPa ENE 19.3 km/h 33.8 km/h 35% 0.0 mm CLR
15:00 32.6 °C 15.2 °C 1016.3 hPa NE 19.3 km/h 32.2 km/h 35% 0.0 mm CLR
15:05 32.7 °C 15.7 °C 1016.3 hPa ENE 19.3 km/h 30.6 km/h 36% 0.0 mm CLR
15:10 32.8 °C 15.3 °C 1016.3 hPa ENE 16.1 km/h 32.2 km/h 35% 0.0 mm CLR
15:15 32.7 °C 15.7 °C 1016.3 hPa ENE 16.1 km/h 35.4 km/h 36% 0.0 mm CLR
15:20 32.5 °C 15.5 °C 1016.3 hPa ENE 19.3 km/h 33.8 km/h 36% 0.0 mm CLR
15:24 32.6 °C 15.6 °C 1016.3 hPa SE 18.3 km/h 29.6 km/h 36% 0.0 mm CLR
15:29 32.5 °C 15.9 °C 1016.3 hPa ENE 19.8 km/h 33.5 km/h 37% 0.0 mm CLR
15:34 32.6 °C 16.4 °C 1016.1 hPa ENE 19.8 km/h 28.6 km/h 38% 0.0 mm CLR
15:40 32.8 °C 16.2 °C 1016.1 hPa ENE 14.5 km/h 29.0 km/h 37% 0.0 mm CLR
15:45 32.5 °C 16.3 °C 1016.1 hPa ENE 15.6 km/h 37.0 km/h 38% 0.0 mm CLR
15:50 32.5 °C 16.3 °C 1016.0 hPa ENE 19.3 km/h 30.6 km/h 38% 0.0 mm CLR
15:55 32.4 °C 16.7 °C 1016.0 hPa ENE 19.3 km/h 35.4 km/h 39% 0.0 mm CLR
16:00 32.6 °C 16.9 °C 1016.0 hPa NE 19.3 km/h 32.2 km/h 39% 0.0 mm CLR
16:05 32.7 °C 16.9 °C 1016.0 hPa NE 19.3 km/h 35.4 km/h 39% 0.0 mm CLR
16:10 32.4 °C 17.1 °C 1016.0 hPa NE 16.1 km/h 33.8 km/h 40% 0.0 mm CLR
16:15 32.4 °C 17.1 °C 1016.0 hPa ENE 16.1 km/h 27.4 km/h 40% 0.0 mm CLR
16:19 32.3 °C 16.6 °C 1015.9 hPa NE 19.0 km/h 33.3 km/h 39% 0.0 mm CLR
16:24 32.4 °C 16.3 °C 1015.9 hPa NE 19.0 km/h 38.9 km/h 38% 0.0 mm CLR
16:30 32.4 °C 16.2 °C 1015.9 hPa NE 19.3 km/h 35.4 km/h 38% 0.0 mm CLR
16:35 32.4 °C 14.9 °C 1015.8 hPa NE 19.3 km/h 35.4 km/h 35% 0.0 mm CLR
16:39 32.2 °C 15.2 °C 1015.8 hPa ENE 23.7 km/h 35.2 km/h 36% 0.0 mm CLR
16:44 32.3 °C 15.3 °C 1015.8 hPa NE 23.7 km/h 42.6 km/h 36% 0.0 mm CLR
16:50 32.2 °C 15.7 °C 1015.9 hPa NE 20.9 km/h 43.4 km/h 37% 0.0 mm CLR
16:55 32.1 °C 15.6 °C 1015.9 hPa NE 20.9 km/h 43.4 km/h 37% 0.0 mm CLR
16:59 32.2 °C 15.7 °C 1015.9 hPa NE 22.0 km/h 33.3 km/h 37% 0.0 mm CLR
17:05 32.2 °C 15.7 °C 1015.9 hPa NE 22.5 km/h 35.4 km/h 37% 0.0 mm CLR
17:10 32.2 °C 15.7 °C 1015.9 hPa NE 20.9 km/h 37.0 km/h 37% 0.0 mm CLR
17:14 32.3 °C 15.8 °C 1015.9 hPa NE 20.9 km/h 27.8 km/h 37% 0.0 mm CLR
17:19 32.2 °C 15.7 °C 1015.8 hPa ENE 20.1 km/h 30.9 km/h 37% 0.0 mm CLR
17:25 32.1 °C 15.6 °C 1015.8 hPa NE 20.9 km/h 38.6 km/h 37% 0.0 mm CLR
17:29 31.9 °C 15.4 °C 1015.8 hPa East 22.5 km/h 35.2 km/h 37% 0.0 mm CLR
17:34 31.9 °C 15.0 °C 1015.8 hPa NE 22.5 km/h 31.5 km/h 36% 0.0 mm CLR
17:39 31.8 °C 15.3 °C 1015.8 hPa NE 24.5 km/h 38.9 km/h 37% 0.0 mm CLR
17:45 31.9 °C 15.4 °C 1015.8 hPa NE 24.1 km/h 35.4 km/h 37% 0.0 mm CLR
17:49 31.9 °C 15.4 °C 1015.9 hPa ENE 21.7 km/h 29.6 km/h 37% 0.0 mm CLR
17:54 32.2 °C 16.1 °C 1015.9 hPa North 21.7 km/h 22.2 km/h 38% 0.0 mm CLR
17:59 32.2 °C 15.2 °C 1015.9 hPa NNE 16.1 km/h 29.8 km/h 36% 0.0 mm CLR
18:04 31.9 °C 15.8 °C 1015.7 hPa NNE 16.1 km/h 25.1 km/h 38% 0.0 mm CLR
18:10 32.0 °C 15.9 °C 1015.7 hPa NE 20.9 km/h 33.8 km/h 38% 0.0 mm CLR
18:14 31.8 °C 15.7 °C 1015.7 hPa ENE 20.1 km/h 40.7 km/h 38% 0.0 mm CLR
18:19 31.8 °C 15.7 °C 1015.4 hPa NNE 20.9 km/h 30.9 km/h 38% 0.0 mm CLR
18:24 31.7 °C 15.6 °C 1015.4 hPa North 20.9 km/h 42.6 km/h 38% 0.0 mm CLR
18:29 31.6 °C 15.6 °C 1015.4 hPa ENE 23.7 km/h 35.2 km/h 38% 0.0 mm CLR
18:35 31.4 °C 15.8 °C 1015.3 hPa NE 24.1 km/h 37.0 km/h 39% 0.0 mm CLR
18:40 31.4 °C 15.8 °C 1015.3 hPa NE 24.1 km/h 41.8 km/h 39% 0.0 mm CLR
18:44 31.3 °C 16.1 °C 1015.3 hPa NE 24.5 km/h 40.7 km/h 40% 0.0 mm CLR
18:50 31.2 °C 16.0 °C 1015.2 hPa NE 24.1 km/h 38.6 km/h 40% 0.0 mm CLR
18:55 31.1 °C 15.9 °C 1015.2 hPa NE 24.1 km/h 37.0 km/h 40% 0.0 mm CLR
18:59 31.1 °C 16.3 °C 1015.2 hPa NE 22.0 km/h 33.3 km/h 41% 0.0 mm CLR
19:04 31.0 °C 16.2 °C 1015.3 hPa ENE 22.0 km/h 29.6 km/h 41% 0.0 mm CLR
19:09 30.9 °C 16.1 °C 1015.3 hPa South 22.0 km/h 30.9 km/h 41% 0.0 mm CLR
19:15 30.8 °C 16.4 °C 1015.3 hPa NE 22.5 km/h 41.8 km/h 42% 0.0 mm CLR
19:19 30.8 °C 16.4 °C 1015.4 hPa NNE 23.3 km/h 27.8 km/h 42% 0.0 mm CLR
19:24 30.7 °C 16.3 °C 1015.4 hPa ENE 23.3 km/h 29.6 km/h 42% 0.0 mm CLR
19:30 30.7 °C 16.3 °C 1015.4 hPa NE 20.9 km/h 32.2 km/h 42% 0.0 mm CLR
19:34 30.7 °C 16.7 °C 1015.6 hPa East 19.8 km/h 27.8 km/h 43% 0.0 mm CLR
19:39 30.6 °C 16.6 °C 1015.6 hPa North 17.2 km/h 22.5 km/h 43% 0.0 mm CLR
19:44 30.6 °C 16.9 °C 1015.6 hPa ENE 17.2 km/h 20.4 km/h 44% 0.0 mm CLR
19:49 30.6 °C 16.6 °C 1015.6 hPa NNE 17.2 km/h 32.3 km/h 43% 0.0 mm CLR
19:54 30.4 °C 16.4 °C 1015.6 hPa NE 17.2 km/h 24.1 km/h 43% 0.0 mm CLR
19:59 30.3 °C 16.7 °C 1015.6 hPa NE 20.1 km/h 29.6 km/h 44% 0.0 mm CLR
20:04 30.2 °C 16.6 °C 1015.9 hPa ENE 20.1 km/h 24.1 km/h 44% 0.0 mm CLR
20:09 30.2 °C 16.6 °C 1015.9 hPa NE 17.2 km/h 27.4 km/h 44% 0.0 mm CLR
20:14 30.2 °C 16.9 °C 1015.9 hPa NE 17.2 km/h 24.1 km/h 45% 0.0 mm CLR
20:20 30.2 °C 17.7 °C 1016.3 hPa ENE 12.9 km/h 19.3 km/h 47% 0.0 mm CLR
20:24 30.1 °C 17.6 °C 1016.3 hPa NNE 13.7 km/h 19.8 km/h 47% 0.0 mm CLR
20:29 29.9 °C 17.4 °C 1016.3 hPa East 10.0 km/h 18.5 km/h 47% 0.0 mm CLR
20:34 29.8 °C 17.6 °C 1016.6 hPa ENE 10.0 km/h 16.7 km/h 48% 0.0 mm CLR
20:39 29.7 °C 17.8 °C 1016.6 hPa ENE 11.9 km/h 20.4 km/h 49% 0.0 mm CLR
20:44 29.6 °C 17.8 °C 1016.6 hPa NNE 11.9 km/h 11.1 km/h 49% 0.0 mm CLR
20:49 29.5 °C 18.0 °C 1016.8 hPa ESE 10.0 km/h 22.2 km/h 50% 0.0 mm CLR
20:54 29.3 °C 18.1 °C 1016.8 hPa NNE 10.0 km/h 24.1 km/h 51% 0.0 mm CLR
20:59 29.2 °C 18.3 °C 1016.8 hPa ENE 13.7 km/h 14.8 km/h 52% 0.0 mm CLR
21:05 29.1 °C 18.2 °C 1016.9 hPa ENE 12.9 km/h 22.5 km/h 52% 0.0 mm CLR
21:09 28.9 °C 18.3 °C 1016.9 hPa ENE 10.3 km/h 20.4 km/h 53% 0.0 mm CLR
21:15 28.8 °C 18.6 °C 1016.9 hPa NE 11.3 km/h 22.5 km/h 54% 0.0 mm CLR
21:19 28.7 °C 18.8 °C 1017.1 hPa East 13.0 km/h 16.7 km/h 55% 0.0 mm CLR
21:24 28.6 °C 18.9 °C 1017.1 hPa NE 13.0 km/h 24.1 km/h 56% 0.0 mm CLR
21:30 28.4 °C 18.8 °C 1017.1 hPa NE 12.9 km/h 19.3 km/h 56% 0.0 mm CLR
21:34 28.3 °C 19.2 °C 1017.4 hPa NE 12.2 km/h 14.8 km/h 58% 0.0 mm CLR
21:40 28.2 °C 19.2 °C 1017.4 hPa NE 11.3 km/h 25.7 km/h 58% 0.0 mm CLR
21:45 28.1 °C 19.3 °C 1017.4 hPa NE 11.3 km/h 16.1 km/h 59% 0.0 mm CLR
21:50 28.0 °C 19.5 °C 1017.7 hPa NE 8.0 km/h 12.9 km/h 60% 0.0 mm CLR
21:54 27.9 °C 19.4 °C 1017.7 hPa ENE 8.4 km/h 13.0 km/h 60% 0.0 mm CLR
21:59 27.8 °C 19.6 °C 1017.7 hPa NNE 8.4 km/h 13.0 km/h 61% 0.0 mm CLR
22:04 27.7 °C 19.8 °C 1018.0 hPa NE 8.4 km/h 14.8 km/h 62% 0.0 mm CLR
22:09 27.6 °C 19.9 °C 1018.0 hPa ENE 10.0 km/h 16.4 km/h 63% 0.0 mm CLR
22:14 27.4 °C 20.0 °C 1018.0 hPa NE 10.0 km/h 22.0 km/h 64% 0.0 mm CLR
22:19 27.3 °C 20.2 °C 1018.3 hPa ENE 11.1 km/h 20.4 km/h 65% 0.0 mm CLR
22:24 27.3 °C 20.4 °C 1018.3 hPa ENE 11.1 km/h 16.7 km/h 66% 0.0 mm CLR
22:29 27.2 °C 20.3 °C 1018.3 hPa NNE 13.0 km/h 18.5 km/h 66% 0.0 mm CLR
22:34 27.1 °C 20.4 °C 1018.5 hPa NE 13.0 km/h 22.2 km/h 67% 0.0 mm CLR
22:39 27.0 °C 20.3 °C 1018.5 hPa ENE 13.7 km/h 19.0 km/h 67% 0.0 mm CLR
22:44 26.9 °C 20.5 °C 1018.5 hPa North 13.7 km/h 14.8 km/h 68% 0.0 mm CLR
22:49 26.9 °C 20.5 °C 1018.6 hPa NE 11.1 km/h 11.1 km/h 68% 0.0 mm CLR
22:55 26.9 °C 20.7 °C 1018.6 hPa NE 11.1 km/h 18.5 km/h 69% 0.0 mm CLR
22:59 26.8 °C 20.6 °C 1018.6 hPa NE 10.0 km/h 14.8 km/h 69% 0.0 mm CLR
23:04 26.7 °C 20.6 °C 1018.8 hPa NE 10.0 km/h 16.7 km/h 69% 0.0 mm CLR
23:09 26.7 °C 20.6 °C 1018.8 hPa NE 10.0 km/h 11.1 km/h 69% 0.0 mm CLR
23:14 26.7 °C 20.8 °C 1018.8 hPa NE 10.0 km/h 10.0 km/h 70% 0.0 mm CLR
23:19 26.6 °C 20.7 °C 1018.8 hPa ENE 8.4 km/h 14.8 km/h 70% 0.0 mm CLR
23:24 26.6 °C 20.7 °C 1018.8 hPa NNE 8.4 km/h 11.1 km/h 70% 0.0 mm CLR
23:29 26.6 °C 20.4 °C 1018.8 hPa ENE 8.7 km/h 10.3 km/h 69% 0.0 mm CLR
23:34 26.6 °C 20.4 °C 1019.0 hPa NE 8.7 km/h 11.1 km/h 69% 0.0 mm CLR
23:39 26.6 °C 20.4 °C 1019.0 hPa NE 7.6 km/h 11.1 km/h 69% 0.0 mm CLR
23:44 26.6 °C 20.2 °C 1019.0 hPa NE 7.6 km/h 13.0 km/h 68% 0.0 mm CLR
23:49 26.6 °C 19.9 °C 1019.1 hPa NNE 8.7 km/h 11.1 km/h 67% 0.0 mm CLR
23:54 26.6 °C 19.7 °C 1019.1 hPa NNE 8.7 km/h 14.8 km/h 66% 0.0 mm CLR
23:59 26.6 °C 19.7 °C 1019.1 hPa NE 9.5 km/h 10.0 km/h 66% 0.0 mm CLR
Murcia-Puente Tocinos, España
Compliments of Weather Underground - 2.75 mb

La estación de MeteoMurcia.com, publica sus datos en los siguientes proyectos:

Weather Underground PWS IMURCIAP2 Meteoclimatic www.awekas.at

W3Counter
Web Analytics